{"data":{"norad_id":58848,"intl_designator":"2023-174DH","name":"AAC-HSI-SAT3","alt_names":[],"object_type":"PAYLOAD","status":"ACTIVE","operator":null,"country":"UK","launch_date":"2023-11-11","launch_site_code":"AFWTR","launch_vehicle":null,"mission":null,"orbit_class":"UNKNOWN","rcs_meters":null,"size_class":null,"mass_kg":null,"dimensions":null,"purposes":[],"wikipedia_slug":null,"has_3d_model":false,"image_url":null,"decayed_at":null,"tle_current":{"epoch":"2026-05-25T03:59:59.900064Z","epoch_age_seconds":56712,"freshness":"FRESH","line1":"1 58848U 23174DH  26145.16666551  .00002465  00000+0  13285-3 0  9992","line2":"2 58848  97.3420 205.3205 0012331  89.6243 270.6403 15.15639603140410","mean_motion":15.15639603,"eccentricity":0.0012331,"inclination_deg":97.342,"raan_deg":205.3205,"arg_perigee_deg":89.6243,"mean_anomaly_deg":270.6403,"bstar":0.00013285,"rev_number":14041,"period_min":95.009393865779,"perigee_km":510.5325571188,"apogee_km":527.54236877933,"semimajor_km":6897.1744629491,"source":"CELESTRAK","updated_at":"2026-05-25T13:38:01.010591Z"}}}